[[{"header":{"parameterUnit":"m.s-1","parameterCategory":2,"la1":30.2991,"la2":30.254,"lo1":-89.0895,"lo2":-89.0444,"dy":0.0017,"dx":0.0017,"nx":28,"ny":28,"refTime":"2025-07-25T03:00:00:Z","depth":"0","parameterNumber":2,"parameterNumberName":"U-component_of_CURRENTS"},"data":[0,0,0,0,0,0,0,0,0,0,0,0,0,0,0,0,0,0,0,0,0,0,0,0,0,0,0,0,0,0,0,0,0,0,0,0,0,0,0,0,0,0,0,0,0,0,0,0,0,0,0,0,0,0,0,0,0,0,0.1825,0.1825,0,0.1842,0.1842,0.1842,0.1817,0.1816,0.1816,0.1815,0.1802,0.1802,0.1803,0,0,0,0,0,0,0,0,0,0,0,0,0,0.1765,0.1766,0.1825,0.1826,0.1826,0.1842,0.1842,0.1842,0.1817,0.1816,0.1815,0.1815,0.1802,0.1802,0.1803,0,0,0,0,0,0,0,0,0,0,0,0,0,0.1785,0.1767,0.1825,0.1818,0.1817,0.1842,0.1842,0.1842,0.1817,0.1816,0.1815,0.1814,0.1802,0.1802,0.1803,0.1823,0,0,0.1804,0.1804,0,0,0,0,0,0,0,0,0.1784,0.1787,0.1818,0.1818,0.1818,0.1829,0.1817,0.1835,0.1817,0.1814,0.1815,0.1814,0.1811,0.1811,0.1812,0.1823,0.1822,0.1804,0.1804,0.1804,0.1804,0,0,0,0,0,0,0,0.1783,0.1786,0.1829,0.1819,0.1819,0.1812,0.1813,0.182,0.1815,0.1814,0.1813,0.182,0.181,0.1812,0.1812,0.1822,0.1804,0.1804,0.1804,0.1804,0.1918,0.1921,0,0,0,0,0,0,0.1788,0.1785,0.1828,0.183,0.1802,0.1814,0.1816,0.1824,0.1815,0.1814,0.1821,0.1819,0.1812,0.1811,0.1811,0.1914,0.1804,0.1804,0.1805,0.1915,0.1919,0.1922,0,0,0,0,0,0,0.1787,0.1792,0.1828,0.181,0.1814,0.1816,0.1826,0.1825,0.1833,0.1821,0.1819,0.1831,0.1811,0.181,0.1838,0.191,0.1805,0.1805,0.1912,0.1916,0.192,0.207,0,0,0,0,0,0,0.1785,0.1791,0.1798,0.181,0.1816,0.1859,0.1827,0.1826,0.1839,0.1837,0.1829,0.1826,0.181,0.1838,0.1838,0.1909,0.1805,0.1908,0.1914,0.1919,0.2061,0.2079,0.2093,0,0,0,0,0,0.1783,0.18,0.1799,0.1804,0.1825,0.1861,0.1864,0.1859,0.1841,0.1859,0.1855,0.1827,0.1872,0.184,0.184,0.1913,0.1906,0.1912,0.1918,0.2054,0.2075,0.2093,0,0,0,0,0,0,0.1775,0.18,0.1798,0.182,0.1847,0.1858,0.1872,0.1869,0.188,0.1872,0.1854,0.1853,0.1905,0.1885,0.185,0.1961,0.1888,0.1895,0.1991,0.2011,0.2027,0.2123,0.1806,0,0,0,0,0,0.1779,0.1799,0.1823,0.1843,0.1857,0.1866,0.1878,0.1879,0.1891,0.1893,0.1888,0.1895,0.1932,0.195,0.1958,0.2015,0.2053,0.2064,0.208,0.2094,0.2173,0.228,0.2314,0.1942,0.1942,0.1942,0,0,0.178,0.1798,0.1807,0.1844,0.1857,0.1901,0.187,0.1898,0.1947,0.1892,0.1942,0.1941,0.1956,0.2024,0.2048,0.2018,0.2213,0.2102,0.2114,0.2187,0.229,0.2327,0.236,0.1947,0.1946,0.1945,0,0,0.1797,0.1812,0.1834,0.1865,0.1899,0.1924,0.1938,0.1958,0.1981,0.2027,0.2018,0.2084,0.2085,0.2157,0.2185,0.2301,0.2285,0.2273,0.2448,0.2549,0.2582,0.2611,0.2681,0.2715,0.2292,0.2292,0.2293,0,0.1794,0.1838,0.1848,0.1885,0.193,0.1942,0.1997,0.2031,0.2059,0.2113,0.2057,0.2173,0.2178,0.2339,0.2395,0.2348,0.238,0.2369,0.2575,0.2605,0.2633,0.2697,0.2733,0.23,0.2299,0.2299,0.2298,0,0.183,0.1875,0.1898,0.1961,0.2007,0.206,0.2117,0.2165,0.2187,0.2233,0.2359,0.2384,0.2471,0.2482,0.2487,0.2698,0.2646,0.2572,0.2533,0.268,0.2736,0.2772,0.2312,0.2309,0.2307,0.2305,0,0,0.1804,0.1906,0.1914,0.1972,0.2061,0.2106,0.2213,0.2337,0.2424,0.2471,0.2608,0.2726,0.2749,0.2791,0.28,0.2925,0.3142,0.286,0.2861,0.2944,0.3355,0.3316,0.3349,0.309,0.3098,0.3104,0.3307,0,0.1839,0.1937,0.1984,0.2101,0.217,0.2242,0.2343,0.2452,0.2536,0.2659,0.2768,0.2871,0.2859,0.2906,0.3047,0.3103,0.3247,0.3094,0.3191,0.3196,0.3156,0.3395,0.3348,0.3526,0.3341,0.3347,0.3351,0,0.1869,0.1938,0.2058,0.2206,0.224,0.2308,0.2497,0.2587,0.2775,0.284,0.2999,0.3045,0.3276,0.3199,0.3465,0.3357,0.3419,0.3457,0.3462,0.3421,0.3226,0.3354,0.3597,0.3526,0.3405,0.34,0.3396,0,0.1877,0.2003,0.2113,0.2159,0.231,0.2384,0.2471,0.2645,0.2738,0.2964,0.3037,0.3277,0.3359,0.3525,0.3623,0.3557,0.3872,0.3752,0.379,0.3782,0.3772,0.3752,0.3986,0.3992,0.3991,0.3991,0.399,0,0.1931,0.2017,0.2117,0.2175,0.2291,0.2393,0.2536,0.2655,0.2829,0.2945,0.3123,0.3243,0.3447,0.3613,0.3716,0.3886,0.3943,0.3926,0.3884,0.3814,0.3797,0.3749,0.3679,0.3998,0.3996,0.3995,0.3994,0,0.196,0.2028,0.2136,0.2265,0.23,0.238,0.252,0.2603,0.2783,0.294,0.301,0.3254,0.3477,0.3666,0.3913,0.3965,0.4055,0.4169,0.4067,0.4013,0.3958,0.3895,0.396,0.3812,0.4281,0.4282,0.4282,0,0.2015,0.2067,0.2161,0.2176,0.2232,0.2338,0.2385,0.2563,0.2645,0.2923,0.2982,0.3254,0.3422,0.3793,0.3997,0.4233,0.4086,0.4276,0.4177,0.4063,0.3962,0.3747,0.3598,0.4203,0.4203,0.4203,0.4203,0,0.2075,0.2079,0.2125,0.2147,0.2178,0.2234,0.2322,0.2383,0.2582,0.2721,0.2909,0.3076,0.3472,0.3725,0.405,0.4181,0.4099,0.4281,0.4223,0.4035,0.3766,0.356,0.3917,0.4204,0.4204,0.4204,0.4204,0.4204,0.2076,0.2077,0.2072,0.2102,0.2103,0.2097,0.2122,0.2225,0.2339,0.2536,0.275,0.2993,0.3466,0.3938,0.4026,0.4223,0.4087,0.4198,0.4166,0.3983,0.3767,0.4126,0.4305,0.4305,0.4305,0.4306,0.4306,0,0.2034,0.2009,0.2022,0.2002,0.1952,0.1997,0.2038,0.2053,0.2133,0.2386,0.257,0.3072,0.3432,0.3798,0.4205,0.4158,0.3935,0.408,0.3808,0.3684,0.4112,0.4036,0.4092,0.4092,0.4092,0.4092,0.4092,0.4092,0.1991,0.1946,0.1944,0.1844,0.1824,0.1744,0.1742,0.1796,0.1952,0.2207,0.2497,0.2793,0.3431,0.4031,0.4213,0.4127,0.378,0.3684,0.3543,0.3913,0.392,0.3926,0.3843,0.3858,0.3857,0.2991,0.2985,0.2981]},{"header":{"parameterUnit":"m.s-1","parameterCategory":2,"la1":30.2991,"la2":30.254,"lo1":-89.0895,"lo2":-89.0444,"dy":0.0017,"dx":0.0017,"nx":28,"ny":28,"refTime":"2025-07-25T03:00:00:Z","depth":"0","parameterNumber":3,"parameterNumberName":"V-component_of_CURRENTS"},"data":[0,0,0,0,0,0,0,0,0,0,0,0,0,0,0,0,0,0,0,0,0,0,0,0,0,0,0,0,0,0,0,0,0,0,0,0,0,0,0,0,0,0,0,0,0,0,0,0,0,0,0,0,0,0,0,0,0,0,-0.0256,-0.0257,0,-0.0325,-0.0326,-0.0327,-0.0354,-0.0353,-0.0353,-0.0353,-0.0417,-0.0419,-0.042,0,0,0,0,0,0,0,0,0,0,0,0,0,-0.0175,-0.0176,-0.0256,-0.0257,-0.0258,-0.0325,-0.0326,-0.0327,-0.0354,-0.0353,-0.0353,-0.0353,-0.0416,-0.0418,-0.0421,0,0,0,0,0,0,0,0,0,0,0,0,0,-0.0223,-0.0176,-0.0256,-0.028,-0.0283,-0.0325,-0.0326,-0.0327,-0.0354,-0.0353,-0.0353,-0.0353,-0.0416,-0.0418,-0.0421,-0.0441,0,0,-0.0429,-0.043,0,0,0,0,0,0,0,0,-0.022,-0.0226,-0.0276,-0.0279,-0.0282,-0.0331,-0.0321,-0.0365,-0.0354,-0.0326,-0.0353,-0.0353,-0.0388,-0.0393,-0.0406,-0.0444,-0.0447,-0.0429,-0.0431,-0.0432,-0.0433,0,0,0,0,0,0,0,-0.0216,-0.0223,-0.0283,-0.0277,-0.028,-0.0297,-0.0303,-0.0329,-0.0357,-0.0328,-0.0331,-0.034,-0.039,-0.0403,-0.0407,-0.0448,-0.0429,-0.0432,-0.0433,-0.0435,-0.049,-0.0489,0,0,0,0,0,0,-0.0208,-0.022,-0.0281,-0.0285,-0.0251,-0.0298,-0.0305,-0.0315,-0.0357,-0.0363,-0.034,-0.0341,-0.0399,-0.0404,-0.041,-0.0344,-0.0432,-0.0435,-0.0436,-0.049,-0.049,-0.0489,0,0,0,0,0,0,-0.0206,-0.0213,-0.0278,-0.0254,-0.0264,-0.03,-0.0311,-0.0316,-0.0331,-0.0365,-0.0371,-0.0348,-0.0399,-0.0406,-0.0429,-0.035,-0.0436,-0.0439,-0.049,-0.049,-0.0489,-0.0272,0,0,0,0,0,0,-0.0204,-0.0212,-0.0216,-0.0254,-0.0265,-0.0299,-0.0311,-0.0318,-0.0337,-0.0339,-0.0375,-0.0381,-0.0399,-0.0425,-0.0432,-0.0355,-0.0441,-0.049,-0.049,-0.049,-0.0279,-0.0264,-0.0251,0,0,0,0,0,-0.0201,-0.0204,-0.0216,-0.0223,-0.0269,-0.03,-0.0307,-0.0331,-0.0338,-0.0343,-0.0365,-0.038,-0.0428,-0.0428,-0.0436,-0.0357,-0.049,-0.049,-0.049,-0.0285,-0.0267,-0.0251,0,0,0,0,0,0,-0.0168,-0.0209,-0.0222,-0.0237,-0.0265,-0.0304,-0.0311,-0.0331,-0.0354,-0.0352,-0.0384,-0.0391,-0.0384,-0.0427,-0.0426,-0.0383,-0.0459,-0.0461,-0.0301,-0.0285,-0.0271,-0.0105,-0.0443,0,0,0,0,0,-0.0164,-0.0179,-0.0218,-0.0229,-0.0241,-0.0277,-0.0292,-0.0308,-0.0335,-0.0345,-0.0369,-0.0391,-0.039,-0.0383,-0.0417,-0.0391,-0.0403,-0.0353,-0.0339,-0.0326,-0.0204,-0.0209,-0.018,-0.0488,-0.0488,-0.0488,0,0,-0.0155,-0.0179,-0.0187,-0.0224,-0.0245,-0.0212,-0.0285,-0.0303,-0.0237,-0.0348,-0.0288,-0.0359,-0.0386,-0.0351,-0.0348,-0.0367,-0.0262,-0.0326,-0.0313,-0.0195,-0.0205,-0.0174,-0.0146,-0.0488,-0.0488,-0.0488,0,0,-0.0129,-0.0164,-0.0158,-0.0163,-0.0191,-0.0189,-0.0191,-0.0228,-0.0208,-0.0195,-0.0233,-0.0232,-0.0282,-0.0229,-0.0217,-0.0149,-0.0209,-0.0211,0.0036,0.0027,0.0056,0.0081,0.0056,0.0077,-0.0177,-0.0177,-0.0176,0,-0.011,-0.0075,-0.0161,-0.0134,-0.0074,-0.0162,-0.0075,-0.0081,-0.0114,-0.0043,-0.0153,-0.0122,-0.0178,-0.002,0.0006,-0.0094,-0.0139,-0.0015,0.0057,0.0081,0.0104,0.0072,0.0094,-0.0166,-0.0167,-0.0168,-0.0169,0,-0.0065,-0.0009,0.0001,0.0043,0.0068,0.0122,0.013,0.0159,0.0155,0.0171,0.0256,0.0167,0.022,0.0168,0.0123,0.0274,0.0172,0.0056,0.0041,0.015,0.0106,0.0124,-0.0151,-0.0155,-0.0158,-0.0161,0,0,-0.0028,0.0035,0.0053,0.0168,0.0204,0.0252,0.0369,0.0502,0.062,0.0559,0.073,0.0718,0.0656,0.0669,0.0579,0.0594,0.0663,0.0421,0.0415,0.045,0.0628,0.0537,0.0546,0.0533,0.0538,0.0542,0.0517,0,0.0084,0.024,0.0232,0.045,0.0583,0.0594,0.0721,0.081,0.0842,0.0942,0.0929,0.0979,0.0848,0.0843,0.0863,0.069,0.0729,0.0682,0.0477,0.0475,0.0424,0.0573,0.0524,0.0498,0.0535,0.0538,0.054,0,0.0205,0.0314,0.0554,0.078,0.0828,0.0923,0.1183,0.1262,0.137,0.138,0.1455,0.1368,0.1447,0.1238,0.117,0.1125,0.0962,0.0816,0.0807,0.0699,0.0423,0.0398,0.0529,0.0248,0.0567,0.0565,0.0563,0,0.042,0.0589,0.0833,0.0901,0.1075,0.1212,0.1298,0.1427,0.1531,0.1648,0.1687,0.1737,0.1698,0.1574,0.1283,0.1221,0.1129,0.0975,0.0778,0.0764,0.069,0.0663,0.0597,0.0992,0.0992,0.0992,0.0993,0,0.0658,0.0861,0.0946,0.1092,0.1358,0.1398,0.165,0.1728,0.1824,0.1956,0.1911,0.198,0.1766,0.1652,0.1416,0.1169,0.1234,0.0924,0.0799,0.0749,0.0729,0.045,0.0291,0.0991,0.0992,0.0992,0.0992,0,0.0936,0.0992,0.1259,0.1427,0.1485,0.1671,0.1817,0.1963,0.201,0.217,0.2203,0.2166,0.2013,0.1773,0.1511,0.1303,0.0915,0.0964,0.0919,0.0795,0.0374,0.0228,0.0144,0.0008,0.0809,0.0808,0.0806,0,0.1138,0.1296,0.1476,0.1589,0.168,0.1887,0.2016,0.2085,0.2197,0.2275,0.236,0.2263,0.2226,0.1837,0.1444,0.1093,0.083,0.0815,0.0742,0.0452,0.0195,0.0112,-0.0002,0.0688,0.0686,0.0684,0.0682,0,0.1487,0.1503,0.1653,0.1845,0.2002,0.2178,0.2334,0.2433,0.2492,0.2569,0.2617,0.2585,0.2221,0.1852,0.136,0.1087,0.0619,0.0766,0.0489,0.0188,0.0078,-0.0153,0.057,0.0666,0.0668,0.0669,0.067,0.067,0.17,0.1811,0.1909,0.2105,0.2244,0.2406,0.2544,0.2653,0.2785,0.2863,0.2808,0.2746,0.2235,0.1565,0.1151,0.0405,0.046,0.0196,0.0068,0.0032,-0.0134,0.0572,0.0495,0.0495,0.0496,0.0496,0.0497,0,0.1921,0.1971,0.2159,0.2329,0.2462,0.2514,0.27,0.2797,0.2911,0.2978,0.2984,0.2664,0.1976,0.1288,0.0335,-0.0178,-0.0361,-0.0468,-0.0597,-0.0665,-0.002,-0.0065,-0.0296,-0.0295,-0.0295,-0.0295,-0.0294,-0.0294,0.2026,0.2174,0.2223,0.2452,0.2562,0.2725,0.2814,0.2956,0.3017,0.3047,0.2966,0.2914,0.2423,0.071,-0.051,-0.0817,-0.1209,-0.1268,-0.1436,-0.1041,-0.0989,-0.094,-0.1017,-0.1443,-0.1445,-0.2028,-0.2035,-0.2039]}],[{"header":{"parameterUnit":"m.s-1","parameterCategory":2,"la1":30.2991,"la2":30.254,"lo1":-89.0895,"lo2":-89.0444,"dy":0.0017,"dx":0.0017,"nx":28,"ny":28,"refTime":"2025-07-25T03:00:00:Z","depth":"2","parameterNumber":2,"parameterNumberName":"U-component_of_CURRENTS"},"data":[0,0,0,0,0,0,0,0,0,0,0,0,0,0,0,0,0,0,0,0,0,0,0,0,0,0,0,0,0,0,0,0,0,0,0,0,0,0,0,0,0,0,0,0,0,0,0,0,0,0,0,0,0,0,0,0,0,0,0.185,0.1851,0,0.1898,0.1898,0.1898,0.1885,0.1885,0.1884,0.1884,0.1883,0.1883,0.1884,0,0,0,0,0,0,0,0,0,0,0,0,0,0.1754,0.1755,0.185,0.1851,0.1852,0.1898,0.1898,0.1898,0.1886,0.1885,0.1884,0.1884,0.1883,0.1883,0.1884,0,0,0,0,0,0,0,0,0,0,0,0,0,0.1794,0.1756,0.185,0.1855,0.1856,0.1898,0.1898,0.1898,0.1886,0.1885,0.1884,0.1883,0.1883,0.1883,0.1884,0.1905,0,0,0.1886,0.1886,0,0,0,0,0,0,0,0,0.1792,0.1797,0.1853,0.1854,0.1856,0.1889,0.1864,0.1899,0.1886,0.187,0.1884,0.1883,0.1884,0.1884,0.189,0.1905,0.1905,0.1886,0.1887,0.1887,0.1887,0,0,0,0,0,0,0,0.1789,0.1795,0.1864,0.1854,0.1856,0.1857,0.1861,0.187,0.1876,0.1871,0.1871,0.1884,0.1883,0.1889,0.1889,0.1905,0.1886,0.1887,0.1887,0.1888,0.2003,0.2006,0,0,0,0,0,0,0.1793,0.1792,0.1863,0.1866,0.1826,0.1859,0.1864,0.1875,0.1877,0.1879,0.1885,0.1883,0.1888,0.1889,0.1889,0.197,0.1887,0.1888,0.1888,0.2,0.2004,0.2006,0,0,0,0,0,0,0.179,0.1799,0.1861,0.1834,0.1842,0.1862,0.1875,0.1877,0.1889,0.1889,0.1888,0.1896,0.1887,0.1888,0.1917,0.1967,0.1888,0.1889,0.1997,0.2001,0.2005,0.2096,0,0,0,0,0,0,0.1787,0.1797,0.181,0.1834,0.1844,0.1902,0.1876,0.1879,0.19,0.1898,0.1899,0.1897,0.1887,0.1916,0.1918,0.1967,0.1889,0.1994,0.1999,0.2004,0.2089,0.2102,0.2113,0,0,0,0,0,0.1784,0.1807,0.181,0.1819,0.1859,0.1904,0.1909,0.1917,0.1901,0.1921,0.1921,0.1898,0.1949,0.1919,0.192,0.1971,0.1992,0.1998,0.2003,0.2084,0.21,0.2113,0,0,0,0,0,0,0.1777,0.181,0.1812,0.1846,0.1879,0.1904,0.1923,0.1926,0.1941,0.1935,0.1923,0.1923,0.1974,0.196,0.1927,0.2021,0.197,0.1977,0.2031,0.2046,0.2058,0.2094,0.189,0,0,0,0,0,0.1782,0.1805,0.1839,0.1869,0.1884,0.1904,0.1922,0.193,0.1948,0.1953,0.1955,0.1966,0.2,0.201,0.203,0.2072,0.2062,0.211,0.2122,0.2132,0.2165,0.2183,0.2199,0.2026,0.2026,0.2026,0,0,0.1787,0.1811,0.1823,0.187,0.1889,0.1934,0.1912,0.1947,0.1995,0.1951,0.2004,0.2007,0.2022,0.2078,0.21,0.207,0.2175,0.2139,0.2148,0.2176,0.2191,0.2207,0.2222,0.203,0.2029,0.2029,0,0,0.1815,0.1832,0.1859,0.1895,0.1938,0.1958,0.1973,0.2004,0.2027,0.2076,0.207,0.2112,0.2135,0.2176,0.2195,0.2288,0.224,0.2283,0.237,0.2385,0.24,0.2412,0.2409,0.2421,0.2285,0.2285,0.2285,0,0.1819,0.1867,0.1878,0.1923,0.1967,0.1974,0.2028,0.2061,0.2101,0.214,0.2105,0.2186,0.2197,0.2293,0.2334,0.2319,0.2301,0.2308,0.24,0.2412,0.2423,0.2418,0.2429,0.229,0.229,0.2289,0.2289,0,0.187,0.1918,0.1943,0.2004,0.2048,0.2099,0.2149,0.2196,0.2213,0.2244,0.2327,0.2336,0.2387,0.2402,0.2401,0.25,0.2452,0.2411,0.2359,0.2446,0.2434,0.2445,0.2297,0.2296,0.2294,0.2293,0,0,0.1857,0.1958,0.1968,0.2023,0.2101,0.2144,0.2238,0.2331,0.2388,0.2422,0.249,0.2578,0.2564,0.2589,0.2583,0.2611,0.2678,0.2552,0.2551,0.2543,0.2693,0.2705,0.2717,0.2633,0.2635,0.2637,0.2648,0,0.1898,0.2007,0.2044,0.2154,0.2222,0.2276,0.236,0.2443,0.249,0.2548,0.2589,0.2643,0.2638,0.2651,0.2688,0.2666,0.2711,0.2678,0.2618,0.2617,0.2611,0.2733,0.2525,0.2522,0.2657,0.2659,0.266,0,0.1939,0.2015,0.2131,0.2257,0.2286,0.2345,0.2481,0.2554,0.2649,0.2685,0.2746,0.2743,0.2821,0.2773,0.2821,0.2786,0.2779,0.2758,0.2756,0.2753,0.2651,0.2461,0.2535,0.2677,0.2675,0.2674,0.2673,0,0.195,0.2077,0.2177,0.2222,0.2354,0.2419,0.2487,0.2599,0.2661,0.2763,0.2793,0.2856,0.2882,0.2879,0.2885,0.2837,0.2904,0.2815,0.2832,0.2829,0.2642,0.2621,0.2886,0.2886,0.2886,0.2886,0.2886,0,0.1997,0.2075,0.2187,0.2245,0.2356,0.2438,0.2539,0.263,0.2711,0.2768,0.2849,0.2896,0.2913,0.2945,0.2913,0.2929,0.2936,0.2896,0.286,0.2668,0.265,0.2771,0.2757,0.2886,0.2886,0.2886,0.2886,0,0.2,0.2081,0.2188,0.232,0.2366,0.2438,0.2552,0.2602,0.2716,0.278,0.2814,0.2934,0.2995,0.3017,0.3026,0.2987,0.2977,0.2992,0.2776,0.2718,0.2866,0.2858,0.2966,0.2967,0.2968,0.2969,0.297,0,0.2019,0.2078,0.2211,0.2249,0.2305,0.2411,0.2465,0.2596,0.2631,0.2794,0.28,0.2938,0.2979,0.304,0.3029,0.3008,0.3053,0.2828,0.2736,0.2935,0.2887,0.2877,0.2867,0.2492,0.2489,0.2487,0.2484,0,0.2029,0.206,0.2121,0.221,0.2272,0.2346,0.2426,0.2465,0.2591,0.2641,0.2717,0.277,0.2903,0.2832,0.2908,0.2857,0.2804,0.2776,0.3039,0.2536,0.2498,0.2448,0.2452,0.246,0.2463,0.2465,0.2466,0.2467,0.1981,0.2019,0.2075,0.2145,0.2209,0.2255,0.2268,0.2326,0.2373,0.2405,0.2529,0.2538,0.263,0.2626,0.2579,0.2579,0.2737,0.26,0.2603,0.261,0.2585,0.2555,0.2521,0.2523,0.2526,0.2528,0.253,0,0.1901,0.1956,0.2008,0.2071,0.2073,0.2165,0.2205,0.2152,0.214,0.2221,0.2228,0.2095,0.2122,0.2236,0.2203,0.2233,0.2143,0.2153,0.2007,0.2036,0.2061,0.2001,0.1785,0.1782,0.1779,0.1777,0,0,0.1864,0.1868,0.1908,0.1911,0.1957,0.1925,0.1926,0.1863,0.1872,0.1807,0.1811,0.1953,0.2138,0.1894,0.1915,0.1846,0.1901,0.1778,0.2385,0.224,0.226,0.2348,0.2296,0,0,0,0,0]},{"header":{"parameterUnit":"m.s-1","parameterCategory":2,"la1":30.2991,"la2":30.254,"lo1":-89.0895,"lo2":-89.0444,"dy":0.0017,"dx":0.0017,"nx":28,"ny":28,"refTime":"2025-07-25T03:00:00:Z","depth":"2","parameterNumber":3,"parameterNumberName":"V-component_of_CURRENTS"},"data":[0,0,0,0,0,0,0,0,0,0,0,0,0,0,0,0,0,0,0,0,0,0,0,0,0,0,0,0,0,0,0,0,0,0,0,0,0,0,0,0,0,0,0,0,0,0,0,0,0,0,0,0,0,0,0,0,0,0,-0.0354,-0.0355,0,-0.0432,-0.0433,-0.0434,-0.047,-0.047,-0.047,-0.047,-0.0543,-0.0545,-0.0547,0,0,0,0,0,0,0,0,0,0,0,0,0,-0.0279,-0.0279,-0.0354,-0.0355,-0.0356,-0.0432,-0.0433,-0.0434,-0.047,-0.047,-0.047,-0.047,-0.0543,-0.0545,-0.0547,0,0,0,0,0,0,0,0,0,0,0,0,0,-0.0329,-0.028,-0.0354,-0.0384,-0.0388,-0.0432,-0.0433,-0.0434,-0.047,-0.047,-0.047,-0.047,-0.0542,-0.0545,-0.0547,-0.0565,0,0,-0.0556,-0.0558,0,0,0,0,0,0,0,0,-0.0326,-0.0331,-0.0379,-0.0382,-0.0386,-0.0442,-0.0433,-0.0478,-0.047,-0.0438,-0.047,-0.047,-0.0509,-0.0515,-0.0529,-0.0568,-0.0571,-0.0557,-0.0558,-0.056,-0.056,0,0,0,0,0,0,0,-0.0322,-0.0328,-0.0384,-0.038,-0.0384,-0.0408,-0.0414,-0.0442,-0.0472,-0.0441,-0.0444,-0.0454,-0.0511,-0.0526,-0.0531,-0.0573,-0.0556,-0.0559,-0.0561,-0.0562,-0.0624,-0.0624,0,0,0,0,0,0,-0.0312,-0.0325,-0.0382,-0.0387,-0.0356,-0.0409,-0.0416,-0.0424,-0.0472,-0.048,-0.0454,-0.0455,-0.0521,-0.0527,-0.0533,-0.0542,-0.056,-0.0562,-0.0564,-0.0624,-0.0624,-0.0624,0,0,0,0,0,0,-0.031,-0.0316,-0.0379,-0.0358,-0.0368,-0.041,-0.0418,-0.0425,-0.0441,-0.0482,-0.0489,-0.0462,-0.0521,-0.0529,-0.0554,-0.0546,-0.0564,-0.0566,-0.0624,-0.0624,-0.0624,-0.0569,0,0,0,0,0,0,-0.0307,-0.0315,-0.0317,-0.0357,-0.0369,-0.0401,-0.0418,-0.0427,-0.0447,-0.045,-0.0492,-0.0499,-0.0522,-0.055,-0.0557,-0.055,-0.0568,-0.0625,-0.0624,-0.0624,-0.0571,-0.0567,-0.0564,0,0,0,0,0,-0.0304,-0.0304,-0.0317,-0.0324,-0.0371,-0.0401,-0.0409,-0.0439,-0.0448,-0.0453,-0.0479,-0.0497,-0.0554,-0.0552,-0.0561,-0.0554,-0.0625,-0.0624,-0.0624,-0.0573,-0.0568,-0.0564,0,0,0,0,0,0,-0.0272,-0.0309,-0.0324,-0.0335,-0.0365,-0.0407,-0.0415,-0.0437,-0.0463,-0.0462,-0.05,-0.0508,-0.0526,-0.055,-0.0547,-0.0572,-0.0591,-0.0593,-0.0549,-0.0545,-0.0541,-0.0534,-0.0571,0,0,0,0,0,-0.0266,-0.0278,-0.0316,-0.0326,-0.0336,-0.0376,-0.0392,-0.0412,-0.0441,-0.0453,-0.0482,-0.051,-0.0533,-0.0546,-0.0572,-0.0588,-0.0647,-0.0589,-0.0585,-0.0582,-0.0583,-0.0684,-0.069,-0.0624,-0.0624,-0.0624,0,0,-0.0257,-0.028,-0.0287,-0.0321,-0.0343,-0.0356,-0.0385,-0.0404,-0.0415,-0.0456,-0.0474,-0.05,-0.0535,-0.055,-0.056,-0.0568,-0.063,-0.0582,-0.0579,-0.0581,-0.0685,-0.0691,-0.0698,-0.0623,-0.0623,-0.0624,0,0,-0.024,-0.0262,-0.0263,-0.0282,-0.0313,-0.0341,-0.0344,-0.0383,-0.0398,-0.0417,-0.0448,-0.0475,-0.0505,-0.0535,-0.0551,-0.0547,-0.0608,-0.0546,-0.0521,-0.0619,-0.0626,-0.0633,-0.0708,-0.0721,-0.0543,-0.0543,-0.0543,0,-0.0224,-0.0231,-0.0268,-0.0269,-0.0278,-0.033,-0.0325,-0.0354,-0.0397,-0.0413,-0.0412,-0.0478,-0.05,-0.0538,-0.0521,-0.0539,-0.0598,-0.0532,-0.0616,-0.0624,-0.0632,-0.0707,-0.0723,-0.054,-0.054,-0.0541,-0.0541,0,-0.021,-0.021,-0.0209,-0.0229,-0.0247,-0.0251,-0.0291,-0.0312,-0.0333,-0.0369,-0.0406,-0.0444,-0.0483,-0.049,-0.0494,-0.0552,-0.0576,-0.0601,-0.0627,-0.0635,-0.0714,-0.0731,-0.0536,-0.0537,-0.0538,-0.0539,0,0,-0.0174,-0.0193,-0.019,-0.0183,-0.0219,-0.0229,-0.0249,-0.0286,-0.031,-0.035,-0.0389,-0.0411,-0.0442,-0.0463,-0.049,-0.0559,-0.0645,-0.0585,-0.0592,-0.0659,-0.0853,-0.073,-0.0738,-0.069,-0.0693,-0.0695,-0.0882,0,-0.0144,-0.0136,-0.0152,-0.0137,-0.0134,-0.0172,-0.0184,-0.0229,-0.0279,-0.0336,-0.0396,-0.0434,-0.0432,-0.0442,-0.0513,-0.0625,-0.0691,-0.0591,-0.0835,-0.0842,-0.0733,-0.0754,-0.0691,-0.0839,-0.09,-0.0903,-0.0905,0,-0.0119,-0.0114,-0.0095,-0.0086,-0.0084,-0.0078,-0.0116,-0.0134,-0.0233,-0.0265,-0.0337,-0.0406,-0.0496,-0.0495,-0.0696,-0.0635,-0.0723,-0.081,-0.082,-0.0737,-0.0752,-0.0844,-0.087,-0.0935,-0.0933,-0.0931,-0.0929,0,-0.0091,-0.0069,-0.005,-0.0048,-0.0056,-0.0036,-0.0036,-0.0109,-0.0131,-0.023,-0.0266,-0.0409,-0.0467,-0.0623,-0.076,-0.0747,-0.0996,-0.1016,-0.0995,-0.0988,-0.0996,-0.0982,-0.1158,-0.1157,-0.1157,-0.1156,-0.1156,0,-0.0067,-0.0045,-0.0023,-0.0012,0.0022,0.0019,0.0023,-0.0005,-0.0064,-0.0107,-0.0213,-0.0272,-0.0501,-0.0662,-0.0795,-0.0934,-0.1029,-0.0992,-0.1029,-0.0968,-0.0951,-0.1082,-0.1071,-0.1163,-0.1162,-0.1161,-0.1159,0,-0.0072,-0.0052,-0.0024,0.001,0.0032,0.0054,0.008,0.0052,0.0036,-0.003,-0.0052,-0.021,-0.0374,-0.0592,-0.0862,-0.0946,-0.1118,-0.1137,-0.1023,-0.1038,-0.1044,-0.1028,-0.1164,-0.1161,-0.1159,-0.1157,-0.1155,0,-0.0093,-0.008,-0.002,0.0001,0.0025,0.0068,0.0072,0.0088,0.0053,0.0019,-0.0032,-0.0163,-0.0218,-0.0536,-0.0761,-0.0982,-0.1045,-0.1053,-0.0991,-0.1023,-0.1047,-0.1034,-0.1022,-0.1007,-0.1004,-0.1002,-0.1,0,-0.0146,-0.0115,-0.0102,-0.0046,-0.0009,0.0034,0.0061,0.0066,0.0068,0.0114,0.0126,0.0121,-0.0141,-0.0319,-0.0596,-0.0748,-0.1011,-0.1005,-0.1145,-0.096,-0.0875,-0.0897,-0.0891,-0.0981,-0.0983,-0.0984,-0.0985,-0.0986,-0.0204,-0.0205,-0.0172,-0.0118,-0.0067,0.0,0.007,0.0111,0.0198,0.0291,0.0248,0.0329,0.006,-0.02,-0.0474,-0.0779,-0.0796,-0.0898,-0.0907,-0.0918,-0.0811,-0.0721,-0.0779,-0.078,-0.078,-0.0781,-0.0782,0,-0.028,-0.0263,-0.0245,-0.016,-0.0092,-0.0037,0.0051,0.0159,0.0333,0.0414,0.0543,0.0438,0.027,-0.0042,-0.0435,-0.0661,-0.0732,-0.0746,-0.0799,-0.0815,-0.083,-0.0721,-0.0665,-0.0666,-0.0666,-0.0666,0,0,-0.0328,-0.0324,-0.0303,-0.0201,-0.0115,0.0041,0.0135,0.0323,0.0449,0.065,0.0745,0.0741,0.0393,0.0143,-0.0207,-0.0434,-0.0574,-0.0479,-0.0546,-0.0583,-0.0595,-0.0887,-0.0731,0,0,0,0,0]}],[{"header":{"parameterUnit":"m.s-1","parameterCategory":2,"la1":30.2991,"la2":30.254,"lo1":-89.0895,"lo2":-89.0444,"dy":0.0017,"dx":0.0017,"nx":28,"ny":28,"refTime":"2025-07-25T03:00:00:Z","depth":"4","parameterNumber":2,"parameterNumberName":"U-component_of_CURRENTS"},"data":[0,0,0,0,0,0,0,0,0,0,0,0,0,0,0,0,0,0,0,0,0,0,0,0,0,0,0,0,0,0,0,0,0,0,0,0,0,0,0,0,0,0,0,0,0,0,0,0,0,0,0,0,0,0,0,0,0,0,0.1037,0.1038,0,0.1091,0.1092,0.1092,0.1136,0.1137,0.1137,0.1138,0.122,0.1222,0.1224,0,0,0,0,0,0,0,0,0,0,0,0,0,0.0969,0.097,0.1037,0.1038,0.1038,0.1091,0.1092,0.1093,0.1136,0.1137,0.1137,0.1138,0.122,0.1222,0.1224,0,0,0,0,0,0,0,0,0,0,0,0,0,0.1008,0.097,0.1037,0.1067,0.107,0.1091,0.1092,0.1093,0.1136,0.1137,0.1138,0.1138,0.1219,0.1222,0.1224,0.1226,0,0,0.1232,0.1233,0,0,0,0,0,0,0,0,0.1006,0.101,0.1062,0.1065,0.1068,0.1108,0.1098,0.1139,0.1136,0.1111,0.1138,0.1139,0.1185,0.119,0.1198,0.123,0.1233,0.1232,0.1234,0.1235,0.1236,0,0,0,0,0,0,0,0.1003,0.1008,0.1058,0.1062,0.1067,0.1077,0.1083,0.1106,0.1143,0.1113,0.1116,0.1123,0.1187,0.1196,0.1201,0.1235,0.1232,0.1235,0.1236,0.1237,0.1347,0.1348,0,0,0,0,0,0,0.0996,0.1006,0.1057,0.106,0.1039,0.1077,0.1084,0.1094,0.1143,0.1151,0.1122,0.1125,0.1191,0.1197,0.1204,0.1293,0.1235,0.1238,0.1239,0.1345,0.1347,0.1349,0,0,0,0,0,0,0.0995,0.1,0.1054,0.1034,0.1042,0.1078,0.1089,0.1095,0.1133,0.1149,0.1158,0.1157,0.1192,0.12,0.126,0.1293,0.1239,0.1241,0.1344,0.1346,0.1348,0.1418,0,0,0,0,0,0,0.0993,0.1,0.1018,0.1034,0.1043,0.1086,0.1088,0.1096,0.1134,0.1139,0.1182,0.1188,0.1193,0.1256,0.1262,0.1296,0.1243,0.1342,0.1345,0.1347,0.1414,0.1422,0.1429,0,0,0,0,0,0.099,0.1005,0.1018,0.1025,0.1062,0.1087,0.1093,0.112,0.1136,0.1157,0.1195,0.1188,0.1276,0.126,0.1267,0.1302,0.1341,0.1344,0.1347,0.141,0.142,0.1429,0,0,0,0,0,0,0.0979,0.1012,0.1026,0.105,0.1077,0.1095,0.1118,0.1137,0.1182,0.1196,0.1214,0.1223,0.1285,0.1283,0.1265,0.1339,0.1304,0.1308,0.135,0.1359,0.1366,0.1401,0.1245,0,0,0,0,0,0.0985,0.1015,0.1038,0.1062,0.1076,0.1104,0.1123,0.1142,0.1176,0.1197,0.1226,0.1259,0.1297,0.1322,0.1346,0.1392,0.1388,0.1416,0.1423,0.143,0.1462,0.1469,0.148,0.1358,0.1358,0.1358,0,0,0.0989,0.1011,0.1028,0.1064,0.1086,0.1114,0.1118,0.1154,0.1186,0.1199,0.126,0.129,0.1315,0.1369,0.1395,0.1377,0.146,0.1433,0.1439,0.1469,0.1473,0.1485,0.1496,0.136,0.136,0.136,0,0,0.1001,0.1029,0.1056,0.1083,0.1123,0.1139,0.1156,0.1191,0.1219,0.1278,0.1297,0.1358,0.1403,0.1436,0.1457,0.1521,0.1499,0.1519,0.1591,0.1597,0.1607,0.1616,0.1618,0.1627,0.1523,0.1523,0.1523,0,0.1005,0.1039,0.1067,0.1098,0.1116,0.1154,0.1178,0.1216,0.1269,0.1307,0.1308,0.1415,0.1439,0.1518,0.1553,0.1542,0.1538,0.1554,0.1607,0.1616,0.1624,0.1624,0.1633,0.1527,0.1526,0.1526,0.1526,0,0.1031,0.1068,0.1085,0.1138,0.116,0.1191,0.1231,0.1282,0.1323,0.1365,0.1457,0.1496,0.1562,0.1577,0.1599,0.1675,0.1651,0.1614,0.1585,0.1641,0.1637,0.1645,0.1532,0.1531,0.153,0.1529,0,0,0.1015,0.1089,0.1099,0.1133,0.1182,0.1207,0.1267,0.1335,0.1395,0.1466,0.1535,0.1634,0.167,0.1698,0.1718,0.1751,0.1811,0.1727,0.1725,0.1732,0.1827,0.1745,0.1744,0.1778,0.178,0.1782,0.1798,0,0.1028,0.1088,0.1114,0.1176,0.1206,0.1256,0.1307,0.1381,0.1441,0.1522,0.1599,0.1679,0.1705,0.175,0.1789,0.1806,0.1837,0.1811,0.1771,0.1771,0.1692,0.1753,0.1788,0.1804,0.1806,0.1807,0.1808,0,0.1035,0.1081,0.1131,0.1207,0.1224,0.1271,0.1361,0.1416,0.1535,0.159,0.169,0.1734,0.1841,0.1823,0.1899,0.188,0.188,0.1883,0.1881,0.1793,0.1704,0.1738,0.1821,0.182,0.1819,0.1818,0.1818,0,0.1003,0.1087,0.113,0.1157,0.1248,0.1295,0.1354,0.1455,0.1505,0.1649,0.17,0.1807,0.1866,0.1893,0.1933,0.1916,0.1981,0.1928,0.1854,0.1847,0.1883,0.1873,0.1974,0.1974,0.1974,0.1974,0.1974,0,0.0987,0.1032,0.1139,0.1169,0.1238,0.1304,0.1382,0.1467,0.1565,0.1633,0.1744,0.1794,0.1891,0.1932,0.1944,0.1936,0.1982,0.1897,0.1857,0.191,0.1903,0.1888,0.1878,0.1974,0.1974,0.1974,0.1974,0,0.0933,0.1004,0.1068,0.1182,0.1223,0.1279,0.1385,0.1441,0.1558,0.1638,0.1689,0.1806,0.188,0.1941,0.1988,0.1942,0.194,0.192,0.1997,0.1956,0.1796,0.179,0.1827,0.1825,0.1823,0.1821,0.1819,0,0.09,0.0933,0.1061,0.11,0.1156,0.1251,0.1306,0.1433,0.1481,0.1626,0.1649,0.1768,0.1839,0.1835,0.1911,0.1928,0.1912,0.1889,0.1847,0.183,0.1787,0.1784,0.178,0.1816,0.1815,0.1815,0.1814,0,0.0832,0.0893,0.095,0.1034,0.1105,0.117,0.1263,0.1284,0.1427,0.1536,0.1589,0.164,0.1719,0.1774,0.1818,0.1819,0.1892,0.1866,0.187,0.183,0.1816,0.1775,0.1774,0.1807,0.1808,0.1809,0.1809,0,0.078,0.0798,0.0881,0.0951,0.103,0.107,0.1131,0.1199,0.1265,0.1428,0.144,0.1574,0.1691,0.1717,0.1745,0.1764,0.1735,0.1669,0.1682,0.1691,0.1646,0.1609,0.1524,0,0,0,0,0,0.0717,0.0738,0.0787,0.0863,0.0937,0.0991,0.1089,0.1153,0.1288,0.1291,0.1364,0.1437,0.1511,0.1576,0.1571,0.1688,0.1738,0.1674,0.1666,0.1766,0.1774,0.1737,0,0,0,0,0,0,0.0674,0.072,0.0754,0.0779,0.0816,0.0889,0.0951,0.104,0.1053,0.1192,0.1241,0.1356,0.1449,0.1505,0.1545,0.1567,0.1534,0.1764,0.1761,0.1761,0.1769,0.1775,0.174,0,0,0,0,0]},{"header":{"parameterUnit":"m.s-1","parameterCategory":2,"la1":30.2991,"la2":30.254,"lo1":-89.0895,"lo2":-89.0444,"dy":0.0017,"dx":0.0017,"nx":28,"ny":28,"refTime":"2025-07-25T03:00:00:Z","depth":"4","parameterNumber":3,"parameterNumberName":"V-component_of_CURRENTS"},"data":[0,0,0,0,0,0,0,0,0,0,0,0,0,0,0,0,0,0,0,0,0,0,0,0,0,0,0,0,0,0,0,0,0,0,0,0,0,0,0,0,0,0,0,0,0,0,0,0,0,0,0,0,0,0,0,0,0,0,-0.0064,-0.0064,0,-0.0086,-0.0087,-0.0087,-0.0126,-0.0127,-0.0128,-0.0129,-0.0172,-0.0173,-0.0173,0,0,0,0,0,0,0,0,0,0,0,0,0,-0.0063,-0.0062,-0.0064,-0.0064,-0.0064,-0.0086,-0.0087,-0.0087,-0.0126,-0.0127,-0.0128,-0.0129,-0.0172,-0.0173,-0.0173,0,0,0,0,0,0,0,0,0,0,0,0,0,-0.0072,-0.0062,-0.0064,-0.0087,-0.0089,-0.0086,-0.0087,-0.0087,-0.0126,-0.0127,-0.0128,-0.0129,-0.0172,-0.0172,-0.0173,-0.0155,0,0,-0.0175,-0.0176,0,0,0,0,0,0,0,0,-0.0071,-0.0072,-0.0083,-0.0085,-0.0088,-0.0105,-0.0102,-0.0111,-0.0126,-0.0112,-0.0129,-0.013,-0.0151,-0.0153,-0.0155,-0.0157,-0.0159,-0.0175,-0.0176,-0.0176,-0.0176,0,0,0,0,0,0,0,-0.0071,-0.0071,-0.0073,-0.0083,-0.0086,-0.0099,-0.0101,-0.0104,-0.0125,-0.0113,-0.0116,-0.0118,-0.0152,-0.0154,-0.0156,-0.0159,-0.0175,-0.0176,-0.0176,-0.0177,-0.0167,-0.0167,0,0,0,0,0,0,-0.0066,-0.007,-0.0072,-0.0073,-0.0082,-0.0098,-0.0101,-0.0098,-0.0125,-0.013,-0.0117,-0.012,-0.0152,-0.0155,-0.0158,-0.0176,-0.0176,-0.0177,-0.0177,-0.0168,-0.0167,-0.0166,0,0,0,0,0,0,-0.0066,-0.0066,-0.0071,-0.0073,-0.0075,-0.0097,-0.0094,-0.0098,-0.0107,-0.0128,-0.0133,-0.0123,-0.0153,-0.0157,-0.0164,-0.0177,-0.0177,-0.0178,-0.0169,-0.0168,-0.0167,-0.0188,0,0,0,0,0,0,-0.0066,-0.0065,-0.0063,-0.0072,-0.0074,-0.0063,-0.0093,-0.0098,-0.0106,-0.011,-0.0133,-0.0138,-0.0154,-0.0163,-0.0165,-0.0178,-0.0178,-0.017,-0.0168,-0.0167,-0.0188,-0.0188,-0.0188,0,0,0,0,0,-0.0065,-0.0049,-0.0063,-0.0063,-0.007,-0.0062,-0.0064,-0.0084,-0.0105,-0.0098,-0.0122,-0.0138,-0.0157,-0.0163,-0.0165,-0.0179,-0.017,-0.0169,-0.0167,-0.0188,-0.0188,-0.0188,0,0,0,0,0,0,-0.0042,-0.0051,-0.0067,-0.0054,-0.0058,-0.0069,-0.0064,-0.0082,-0.0094,-0.0103,-0.013,-0.0136,-0.0145,-0.0149,-0.0155,-0.0168,-0.0165,-0.0164,-0.018,-0.018,-0.018,-0.0236,-0.0179,0,0,0,0,0,-0.0037,-0.0032,-0.0042,-0.0032,-0.0032,-0.0051,-0.0053,-0.0066,-0.0078,-0.0086,-0.0102,-0.0119,-0.0137,-0.0149,-0.0153,-0.0161,-0.0175,-0.0167,-0.0167,-0.0167,-0.0211,-0.0236,-0.0243,-0.0162,-0.0162,-0.0162,0,0,-0.0025,-0.003,-0.0028,-0.0028,-0.0035,-0.0036,-0.0054,-0.0051,-0.0066,-0.0087,-0.0103,-0.0113,-0.0135,-0.0148,-0.0153,-0.0158,-0.0185,-0.0165,-0.0166,-0.0211,-0.0235,-0.0244,-0.0251,-0.0161,-0.0161,-0.0161,0,0,0.0004,-0.0003,0.0009,0.0004,-0.0004,-0.0017,-0.0017,-0.0026,-0.0044,-0.0051,-0.0081,-0.0112,-0.0108,-0.0154,-0.0172,-0.0171,-0.0177,-0.015,-0.0208,-0.0229,-0.0238,-0.0245,-0.0229,-0.0235,-0.0158,-0.0158,-0.0158,0,0.0017,0.0016,0.0015,0.0021,0.0009,-0.0011,-0.0011,-0.0026,-0.0039,-0.0062,-0.0053,-0.0105,-0.0125,-0.019,-0.0204,-0.0179,-0.0174,-0.0211,-0.0234,-0.0242,-0.0249,-0.0231,-0.0238,-0.0159,-0.0158,-0.0158,-0.0158,0,0.0048,0.0037,0.0046,0.0034,0.0034,0.003,0.0009,-0.0,-0.0021,-0.0049,-0.0093,-0.0125,-0.0163,-0.0171,-0.0201,-0.0268,-0.0237,-0.0225,-0.0244,-0.026,-0.0237,-0.0244,-0.016,-0.0159,-0.0159,-0.0159,0,0,0.0089,0.0067,0.0067,0.0048,0.003,0.0035,0.0012,-0.0025,-0.0039,-0.0076,-0.0104,-0.0189,-0.0212,-0.0239,-0.0269,-0.0327,-0.0369,-0.0314,-0.0315,-0.0316,-0.0387,-0.0378,-0.0384,-0.0356,-0.0358,-0.036,-0.0334,0,0.0098,0.0091,0.0086,0.007,0.0053,0.0031,0.002,-0.0012,-0.0033,-0.005,-0.0138,-0.0162,-0.0232,-0.024,-0.0317,-0.034,-0.0395,-0.0376,-0.0359,-0.0359,-0.0365,-0.0396,-0.0367,-0.034,-0.0341,-0.0342,-0.0343,0,0.0106,0.0099,0.008,0.0056,0.0055,0.0054,0.0027,0.0018,-0.0027,-0.004,-0.011,-0.0137,-0.0244,-0.0271,-0.0386,-0.0361,-0.0402,-0.0434,-0.0432,-0.044,-0.0366,-0.033,-0.0355,-0.0354,-0.0353,-0.0353,-0.0352,0,0.0088,0.0083,0.0058,0.0049,0.0038,0.0032,0.0031,0.0007,0.001,-0.0037,-0.0026,-0.0136,-0.0159,-0.0257,-0.0345,-0.0352,-0.044,-0.0427,-0.0466,-0.0461,-0.0467,-0.046,-0.0531,-0.0531,-0.0531,-0.0531,-0.0532,0,0.0058,0.0036,0.005,0.0033,0.0048,0.0036,0.0051,0.0039,0.0037,0.0052,-0.0026,-0.003,-0.0163,-0.0218,-0.0315,-0.0408,-0.0406,-0.0506,-0.0478,-0.0465,-0.0458,-0.0469,-0.0462,-0.053,-0.0531,-0.0531,-0.0531,0,0.001,0.0,-0.0004,0.0014,0.0028,0.0042,0.0088,0.0108,0.0091,0.0118,0.0108,0.0052,-0.0023,-0.0141,-0.026,-0.0344,-0.0438,-0.0475,-0.0431,-0.0394,-0.0446,-0.044,-0.0505,-0.0505,-0.0505,-0.0505,-0.0505,0,-0.003,-0.0042,0.001,0.0044,0.0051,0.0084,0.012,0.0126,0.0161,0.017,0.0192,0.0131,0.0078,-0.0058,-0.021,-0.037,-0.0419,-0.045,-0.0518,-0.049,-0.0455,-0.0449,-0.0443,-0.0505,-0.0505,-0.0505,-0.0505,0,-0.0063,-0.0037,-0.0011,0.0063,0.011,0.0168,0.0217,0.025,0.027,0.0258,0.0279,0.0192,0.0114,-0.0029,-0.0158,-0.0287,-0.0422,-0.0452,-0.0453,-0.0517,-0.049,-0.0454,-0.0448,-0.0505,-0.0505,-0.0505,-0.0505,0,-0.005,-0.0017,0.0044,0.0109,0.0173,0.0244,0.0262,0.0316,0.0345,0.0355,0.0365,0.0261,0.02,0.0015,-0.0104,-0.0231,-0.0282,-0.0333,-0.0342,-0.0344,-0.0334,-0.0278,-0.0228,0,0,0,0,0,-0.0023,0.0034,0.0094,0.0177,0.0234,0.0269,0.0337,0.0351,0.0375,0.0406,0.0389,0.0317,0.014,0.0062,-0.0062,-0.0137,-0.0324,-0.029,-0.0392,-0.0505,-0.0505,-0.0524,0,0,0,0,0,0,0.002,0.0076,0.0108,0.0217,0.0271,0.0341,0.0381,0.0393,0.0415,0.0418,0.0335,0.0279,0.011,0.0216,-0.0065,-0.0107,-0.0191,-0.0379,-0.0382,-0.0505,-0.0505,-0.0505,-0.0525,0,0,0,0,0]}]]